This is the latest recevied weather packets stored in our database for station/object PP5FMM-10. If no packets are shown the sender has not sent any weather packets the latest 10 day(s).
| Time | Temp. | Humidity | Pressure | Rain* | Wind** | Luminosity | Snow |
|---|---|---|---|---|---|---|---|
| 1787936732 | 21.67° C | 84% | 1004.4 hPa | - | - | - | - |
| 1787935832 | 21.67° C | 85% | 1004.7 hPa | - | - | - | - |
| 1787934932 | 21.67° C | 84% | 1005 hPa | - | - | - | - |
| 1787934031 | 21.67° C | 84% | 1005 hPa | - | - | - | - |
| 1787933131 | 21.67° C | 84% | 1005.2 hPa | - | - | - | - |
| 1787932231 | 21.67° C | 84% | 1005.7 hPa | - | - | - | - |
| 1787931331 | 21.67° C | 83% | 1006.1 hPa | - | - | - | - |
| 1787930431 | 21.67° C | 83% | 1006.3 hPa | - | - | - | - |
| 1787929531 | 21.67° C | 82% | 1006.6 hPa | - | - | - | - |
| 1787928631 | 21.67° C | 81% | 1007.1 hPa | - | - | - | - |
| 1787927731 | 21.67° C | 79% | 1007.3 hPa | - | - | - | - |
| 1787926830 | 21.67° C | 77% | 1007.6 hPa | - | - | - | - |
| 1787925930 | 21.11° C | 75% | 1007.9 hPa | - | - | - | - |
| 1787925035 | 21.67° C | 75% | 1008.3 hPa | - | - | - | - |
| 1787924130 | 21.11° C | 77% | 1008.4 hPa | - | - | - | - |
| 1787923230 | 21.67° C | 81% | 1008.4 hPa | - | - | - | - |
| 1787922329 | 22.78° C | 87% | 1008.7 hPa | - | - | - | - |
| 1787921429 | 22.22° C | 88% | 1009 hPa | - | - | - | - |
| 1787920529 | 22.22° C | 88% | 1009 hPa | - | - | - | - |
| 1787919629 | 22.22° C | 87% | 1009.1 hPa | - | - | - | - |
| 1787918728 | 22.22° C | 88% | 1009.2 hPa | - | - | - | - |
| 1787917828 | 22.22° C | 88% | 1009.3 hPa | - | - | - | - |
| 1787916928 | 22.22° C | 88% | 1009 hPa | - | - | - | - |
| 1787916028 | 21.67° C | 89% | 1008.8 hPa | - | - | - | - |
| 1787915128 | 21.67° C | 89% | 1009 hPa | - | - | - | - |
* Rain since midnight (hover to see other rain measurements)
** Current wind speed in m/s (hover to see current wind gust speed)